CW2234 Weather Reports


time (UTC)temp
C
wind
direction
speed
KPH
gust
KPH
rain 1hr
cm
rain 24hr
cm
rain mn
cm
humidity
%
barometer
mb
20260507033055 16 122 1.6 11.3 0.00 0.00 0.00 84 1016.7
20260507031555 16 131 1.6 16.1 0.00 0.00 0.00 83 1016.7
20260507030058 16 134 1.6 9.7 0.00 0.00 0.00 83 1016.6
20260507024600 17 156 4.8 14.5 0.00 0.00 0.00 82 1016.4
20260507023109 17 117 1.6 14.5 0.00 0.00 0.00 80 1016.2
20260507021557 17 98 4.8 11.3 0.00 0.00 0.00 78 1016.1
20260507020104 17 116 3.2 12.9 0.00 0.00 0.00 77 1016.0
20260507014557 17 132 3.2 17.7 0.00 0.00 0.00 78 1016.0
20260507013052 18 126 3.2 17.7 0.00 0.00 0.00 77 1015.9
20260507011552 18 172 3.2 12.9 0.00 0.00 0.00 75 1016.0
20260507010054 19 144 1.6 9.7 0.00 0.00 0.00 74 1016.1
20260507004554 19 198 1.6 11.3 0.00 0.00 0.00 75 1015.9
20260507003111 19 149 1.6 22.5 0.00 0.00 0.00 74 1016.0
20260507001612 19 124 3.2 14.5 0.00 0.00 0.00 74 1016.0
20260507000058 19 145 3.2 19.3 0.00 0.00 0.00 74 1015.8
20260506234558 20 134 3.2 16.1 0.00 0.00 0.00 72 1015.8
20260506233058 20 122 1.6 12.9 0.00 0.00 0.00 71 1015.9
20260506231608 20 136 4.8 17.7 0.00 0.00 0.00 69 1015.8
20260506230113 20 291 1.6 19.3 0.00 0.00 0.00 69 1015.9
20260506224558 20 208 3.2 14.5 0.00 0.00 0.00 70 1016.1
20260506223109 20 86 1.6 16.1 0.00 0.00 0.00 69 1016.4
20260506221606 20 123 1.6 20.9 0.00 0.00 0.00 68 1016.4
20260506220056 21 114 1.6 12.9 0.00 0.00 0.00 70 1016.8
20260506214557 21 142 3.2 17.7 0.00 0.00 0.00 68 1016.8
20260506213055 21 182 3.2 17.7 0.00 0.00 0.00 67 1017.0
20260506211555 20 88 1.6 12.9 0.00 0.00 0.00 69 1017.1
20260506210058 20 88 4.8 16.1 0.00 0.00 0.00 69 1017.2
20260506204556 20 131 4.8 17.7 0.00 0.00 0.00 68 1017.4
20260506203119 20 120 1.6 12.9 0.00 0.00 0.00 64 1017.5
20260506201556 20 360 3.2 17.7 0.00 0.00 0.00 66 1017.4
20260506200057 20 134 1.6 12.9 0.00 0.00 0.00 67 1017.6
20260506194600 20 171 3.2 16.1 0.00 0.00 0.00 67 1017.7
20260506193104 21 160 1.6 11.3 0.00 0.00 0.00 68 1017.8
20260506191553 21 132 1.6 11.3 0.00 0.00 0.00 68 1018.0
20260506190056 20 112 3.2 12.9 0.00 0.00 0.00 69 1018.1
20260506184559 20 74 1.6 11.3 0.00 0.00 0.00 69 1018.3
20260506183105 20 138 1.6 9.7 0.00 0.00 0.00 69 1018.3
20260506181556 20 157 4.8 17.7 0.00 0.00 0.00 70 1018.4
20260506180058 20 133 0.0 11.3 0.00 0.00 0.00 69 1018.4
20260506174556 20 128 1.6 12.9 0.00 0.00 0.00 68 1018.3
20260506173059 20 134 1.6 6.4 0.00 0.00 0.00 69 1018.3
20260506171553 18 13 1.6 8.0 0.00 0.00 0.00 71 1018.4
20260506170106 18 288 6.4 11.3 0.00 0.00 0.00 72 1018.3
20260506164616 18 340 1.6 8.0 0.00 0.00 0.00 73 1018.2
20260506163108 17 271 3.2 11.3 0.00 0.00 0.00 73 1018.3
20260506161559 17 284 0.0 11.3 0.00 0.00 0.00 76 1018.4
20260506160120 17 279 3.2 11.3 0.00 0.00 0.00 77 1018.4
20260506154559 17 360 4.8 11.3 0.00 0.00 0.00 78 1018.4
20260506153058 16 0 3.2 8.0 0.00 0.00 0.00 80 1018.3
20260506151600 16 277 3.2 9.7 0.00 0.00 0.00 80 1018.5
20260506144555 15 277 3.2 6.4 0.00 0.00 0.00 82 1018.4
20260506143053 15 0 1.6 6.4 0.00 0.00 0.00 84 1018.4
20260506141552 14 254 3.2 6.4 0.00 0.00 0.00 86 1018.3
20260506140056 13 228 1.6 6.4 0.00 0.00 0.00 88 1018.2
20260506134552 13 172 1.6 6.4 0.00 0.00 0.00 89 1018.1
20260506133109 12 105 0.0 1.6 0.00 0.00 0.00 89 1018.0
20260506131616 12 0 0.0 1.6 0.00 0.00 0.00 89 1017.8
20260506130053 12 0 0.0 3.2 0.00 0.00 0.00 89 1017.6
20260506124552 12 104 0.0 1.6 0.00 0.00 0.00 88 1017.4
20260506123052 12 104 0.0 3.2 0.00 0.00 0.00 88 1017.4
20260506121554 12 0 0.0 3.2 0.00 0.00 0.00 87 1017.3
20260506120101 13 0 0.0 3.2 0.00 0.00 0.00 88 1017.3
20260506114553 12 0 0.0 0.0 0.00 0.00 0.00 88 1017.2
20260506113051 12 0 0.0 3.2 0.00 0.00 0.00 87 1017.2
20260506111552 12 0 0.0 0.0 0.00 0.00 0.00 88 1017.2
20260506110109 13 0 0.0 0.0 0.00 0.00 0.00 87 1017.1
20260506104608 13 0 0.0 0.0 0.00 0.00 0.00 87 1017.2
20260506103052 13 0 0.0 3.2 0.00 0.00 0.00 88 1017.2
20260506101552 13 104 0.0 3.2 0.00 0.00 0.00 88 1017.1
20260506094600 13 0 0.0 1.6 0.00 0.00 0.00 87 1017.1
20260506093052 14 0 0.0 1.6 0.00 0.00 0.00 87 1017.0
20260506091552 14 0 0.0 1.6 0.00 0.00 0.00 87 1017.1
20260506090053 14 0 0.0 3.2 0.00 0.00 0.00 86 1017.3
20260506084618 14 0 0.0 1.6 0.00 0.00 0.00 85 1017.4
20260506083053 14 0 0.0 3.2 0.00 0.00 0.00 84 1017.5
20260506081557 14 103 0.0 3.2 0.00 0.00 0.00 83 1017.5
20260506073054 14 101 0.0 0.0 0.00 0.00 0.00 82 1017.6
20260506071558 15 0 0.0 1.6 0.00 0.00 0.00 82 1017.4
20260506061555 15 103 0.0 4.8 0.00 0.00 0.00 83 1017.0
20260506044553 16 0 0.0 4.8 0.00 0.00 0.00 82 1016.3
20260506043056 16 96 0.0 3.2 0.00 0.00 0.00 80 1016.2
20260506041604 16 101 0.0 4.8 0.00 0.00 0.00 79 1016.0
20260506040058 16 101 0.0 3.2 0.00 0.00 0.00 78 1016.0
20260506034557 16 0 0.0 3.2 0.00 0.00 0.00 79 1015.5